Wind_Speed
3 3 2 2 3 3 3 4 5 5 5 5 5 5 5 5 5 5 5 5 4 3 3 3 2 1 1 1 1 2 3 3 3 3 3 3 4 3 3 3 4 4 4
2 2 2 1 2 2 2 3 4 4 5 4 4 5 5 4 4 4 4 4 4 4 3 2 2 2 1 1 1 2 2 3 3 4 4 4 4 4 4 4 4 4 4
2 2 1 1 1 1 1 2 3 3 4 4 4 4 4 4 4 4 4 4 4 4 3 3 2 2 2 2 2 2 3 4 4 5 5 5 5 5 5 5 5 5 5
2 2 2 1 1 0 1 1 2 2 3 4 4 3 3 4 4 5 5 4 4 4 4 3 3 3 3 3 3 4 4 4 4 5 6 6 6 6 6 6 6 5 6
3 2 2 1 1 1 1 0 1 1 2 3 3 3 3 3 4 5 5 5 5 4 4 4 3 3 3 3 4 4 5 6 6 6 7 7 7 6 7 6 7 7 6
4 3 3 2 2 2 1 1 1 1 1 2 2 3 3 4 5 5 5 5 5 5 4 4 4 3 4 4 4 4 5 5 6 6 7 8 8 8 8 7 7 7 7
5 4 4 4 3 3 2 1 1 1 2 1 2 3 3 4 5 5 6 6 5 5 5 4 4 4 4 5 5 5 5 6 6 7 7 8 8 8 9 8 8 9 8
6 5 6 5 4 4 3 2 2 2 2 1 2 3 3 4 5 5 6 6 6 5 5 5 5 5 6 6 6 6 6 7 7 8 8 8 9 9 9 10 10 10 10
6 6 6 6 5 5 4 3 2 2 2 2 2 3 3 4 5 5 5 6 6 6 6 6 6 6 6 7 7 6 6 7 8 8 9 9 9 10 10 10 10 11 10
7 7 7 7 7 6 5 4 3 3 2 2 3 3 3 4 4 5 5 6 6 6 6 6 6 7 7 7 7 6 6 7 8 8 9 9 9 10 10 10 10 10 10
8 8 8 8 7 7 6 5 5 4 4 3 4 4 4 4 4 5 6 6 7 7 7 7 7 7 7 7 7 7 7 7 7 8 8 8 9 9 9 10 10 10 10
9 9 8 8 8 8 7 6 6 4 4 4 4 4 3 4 4 5 6 6 6 7 7 7 7 7 7 7 7 7 7 7 7 8 8 8 9 9 9 10 11 11 10
9 8 8 8 8 8 8 8 6 5 4 3 4 4 4 4 4 5 6 6 6 6 7 7 7 7 7 7 7 8 8 7 7 7 8 9 9 9 9 10 11 11 11
10 9 9 9 9 8 8 7 7 6 5 4 5 5 4 5 5 6 6 5 6 6 7 7 7 7 7 7 7 8 8 8 7 7 8 9 9 10 10 10 11 11 12
11 11 10 10 10 9 9 8 7 7 6 5 5 5 5 5 6 6 6 6 6 7 7 7 7 7 7 7 7 7 7 7 7 7 7 8 9 10 11 11 11 11 12
11 12 11 11 10 10 8 8 8 7 7 6 5 5 5 5 5 5 6 6 7 7 7 7 7 7 8 7 7 7 7 7 7 7 7 8 8 9 11 11 11 11 11
11 11 12 11 11 10 9 9 9 8 8 7 6 5 6 5 5 6 7 6 7 7 7 7 7 7 7 7 7 7 7 6 6 7 7 8 8 9 10 10 11 11 11
12 12 12 11 11 10 10 10 10 9 8 7 7 6 7 6 6 6 7 7 7 7 7 7 7 8 8 7 7 7 7 6 7 7 7 7 8 9 9 8 10 10 10
13 12 13 12 11 11 10 10 10 9 9 9 8 7 7 7 7 7 7 7 6 6 7 7 7 8 8 8 7 7 7 7 7 7 7 7 8 8 8 8 9 10 10
13 13 13 13 13 12 11 11 10 10 10 10 9 8 8 8 7 7 7 7 6 6 6 6 7 8 7 7 7 7 7 7 7 7 7 7 7 8 8 9 9 9 11
14 14 14 14 13 12 11 11 10 10 11 10 9 9 9 8 8 7 7 6 6 6 6 7 7 7 7 7 7 7 7 7 7 7 7 7 7 8 8 9 10 10 11
14 14 14 14 14 13 12 11 10 10 9 9 9 10 9 8 7 7 7 6 6 6 6 6 7 8 7 7 7 7 7 7 7 7 7 7 8 8 9 10 11 11 12
15 15 15 15 14 13 12 12 11 10 10 9 9 9 9 8 8 8 8 7 7 7 7 7 7 8 8 7 7 7 7 7 7 6 7 7 8 9 9 9 10 11 12
16 16 15 15 14 14 13 12 11 11 10 10 9 9 9 9 8 8 8 8 7 7 7 7 7 8 8 8 7 7 7 7 7 6 7 8 8 9 9 9 10 12 13
17 17 16 16 15 15 13 12 12 11 11 10 9 9 9 9 9 8 8 8 7 7 7 7 7 8 8 8 8 7 7 7 7 7 8 9 9 10 10 10 11 12 13
17 17 17 17 16 15 14 13 13 12 11 10 10 10 10 9 9 8 8 8 8 7 7 7 8 8 8 8 8 8 7 8 8 9 9 9 10 10 11 12 12 12 13
Wind_Direction
139 130 112 110 85 89 77 63 65 64 58 56 56 58 59 52 45 40 36 32 32 32 30 26 26 22 52 135 188 194 193 201 208 213 212 205 202 196 187 187 186 180 173
144 140 132 100 91 84 74 63 62 60 51 49 52 54 51 44 37 31 25 22 17 9 2 357 3 341 322 278 227 217 217 224 224 230 230 222 219 220 218 210 200 196 194
168 155 165 146 116 63 60 56 52 48 42 43 48 48 47 41 31 20 14 11 5 356 350 343 333 314 307 288 268 250 239 235 231 235 234 228 227 231 228 221 215 210 212
198 204 190 201 168 116 81 56 43 40 40 43 45 44 39 30 20 8 1 354 348 345 342 339 327 310 304 292 284 266 248 243 240 238 236 231 229 232 231 227 228 225 223
210 216 200 212 210 206 270 312 30 25 34 37 37 38 31 18 5 356 350 344 339 336 334 333 324 312 305 295 287 272 259 253 245 243 243 237 237 234 230 230 232 234 232
215 208 206 224 216 229 244 268 293 326 359 17 19 15 10 4 353 344 342 341 338 332 323 325 319 312 304 298 287 279 269 258 250 249 249 241 240 237 234 234 235 235 233
217 219 219 229 229 217 237 267 290 281 305 351 5 358 356 351 344 339 336 337 332 325 317 314 311 303 302 301 293 285 278 262 255 253 252 245 241 243 240 237 236 235 234
216 216 222 233 230 225 248 265 285 289 295 326 348 350 346 340 336 333 327 328 324 318 312 306 304 298 294 296 293 283 275 265 259 257 254 250 246 247 246 240 238 236 237
227 229 227 234 231 235 242 238 245 272 287 307 332 334 323 329 327 326 324 324 321 317 308 303 301 298 295 291 288 283 274 265 260 258 255 250 248 249 249 244 241 238 237
229 230 232 235 234 238 242 237 242 252 255 277 300 307 309 319 318 320 322 322 318 313 305 301 300 299 297 294 289 284 278 271 266 263 257 254 252 250 250 244 240 237 234
230 235 237 239 242 242 237 240 245 248 247 263 286 291 299 305 308 317 315 319 316 312 307 303 301 300 301 298 290 285 282 278 268 265 261 255 252 250 248 245 243 239 234
231 236 239 241 241 237 235 235 243 246 249 260 277 287 297 298 303 313 310 312 316 317 314 307 300 298 299 295 290 287 284 279 271 264 258 253 252 249 246 244 245 240 237
239 237 240 240 236 234 236 232 237 241 239 257 262 273 287 291 296 303 305 308 313 318 320 316 310 304 299 295 292 288 286 282 275 265 257 252 252 250 247 245 245 244 242
240 238 237 229 228 231 232 228 228 231 234 259 270 270 272 281 289 293 299 304 309 314 319 317 317 311 306 300 295 293 291 288 277 266 256 252 252 252 252 251 249 248 246
236 236 233 229 230 229 229 230 229 232 243 263 271 270 267 275 283 287 293 297 305 311 315 319 319 314 308 306 299 294 291 286 278 267 258 255 255 252 252 253 253 254 250
231 232 232 229 233 231 229 229 229 232 243 256 259 264 268 274 280 287 289 295 305 309 311 315 316 312 307 306 301 297 292 286 281 269 260 257 257 257 257 256 253 252 252
233 233 234 229 230 231 228 232 232 238 243 251 253 260 266 268 278 286 288 297 308 310 311 315 318 313 308 306 301 298 293 291 285 272 260 257 258 258 258 256 248 248 249
236 233 230 227 229 231 231 234 237 238 241 245 246 254 263 266 273 281 284 295 304 309 311 315 319 316 312 306 300 294 289 289 286 276 264 263 265 263 256 250 248 247 247
233 231 223 225 228 229 231 235 236 236 234 240 247 253 262 265 273 279 282 290 295 304 308 312 317 317 311 305 299 291 286 284 282 279 271 269 270 267 256 247 247 248 249
227 223 219 221 224 226 231 235 236 235 235 239 248 253 260 262 272 280 283 285 289 300 305 308 317 318 312 306 300 293 287 283 282 279 274 273 271 267 260 254 253 253 254
220 220 218 220 222 225 229 231 235 236 237 240 247 253 260 263 269 273 280 283 286 296 303 306 312 316 314 309 302 297 291 286 282 279 278 277 276 272 269 266 263 261 262
219 219 218 218 218 221 223 223 231 235 237 243 249 254 256 258 266 268 272 276 280 289 299 304 307 312 313 309 303 297 294 291 284 281 279 278 279 275 270 270 270 268 267
217 218 220 220 220 221 222 225 229 229 236 245 249 252 252 255 262 268 272 272 276 283 292 300 306 310 311 309 306 300 294 290 284 281 281 282 282 279 277 275 275 274 272
220 221 223 223 225 226 224 225 230 232 236 240 247 250 250 256 259 263 266 268 273 280 290 298 305 309 310 307 305 302 298 293 286 286 286 286 287 287 285 285 283 280 276
224 224 225 223 225 229 229 229 229 231 234 240 245 248 252 254 256 261 262 263 269 277 283 291 300 305 309 306 304 302 299 294 291 289 287 289 292 294 292 291 289 286 284
226 227 228 227 227 229 231 233 235 236 237 241 247 249 249 252 255 255 257 260 269 278 280 287 295 297 302 303 303 303 301 297 295 292 290 290 291 293 294 297 297 295 291
Height
5889 5889 5889 5889 5890 5890 5890 5891 5891 5891 5891 5891 5891 5891 5891 5891 5892 5892 5892 5892 5892 5892 5892 5892 5892 5893 5893 5893 5893 5894 5894 5895 5895 5896 5896 5897 5897 5898 5898 5899 5899 5900 5900
5889 5889 5890 5890 5890 5890 5890 5891 5891 5891 5892 5891 5891 5891 5891 5892 5892 5892 5892 5892 5892 5892 5892 5892 5892 5893 5893 5893 5893 5893 5894 5894 5895 5895 5896 5897 5897 5898 5898 5899 5899 5900 5900
5889 5890 5890 5890 5890 5890 5891 5891 5891 5892 5892 5892 5892 5892 5892 5892 5893 5893 5892 5892 5892 5892 5892 5892 5892 5892 5892 5893 5893 5893 5893 5894 5894 5895 5895 5896 5897 5897 5898 5898 5899 5899 5900
5889 5890 5890 5890 5891 5891 5891 5892 5892 5892 5892 5892 5892 5892 5892 5893 5893 5893 5893 5892 5892 5892 5892 5892 5892 5892 5892 5892 5892 5892 5893 5893 5894 5894 5895 5895 5896 5896 5897 5897 5898 5899 5899
5889 5890 5890 5890 5891 5891 5892 5892 5892 5892 5892 5892 5892 5893 5893 5893 5893 5893 5893 5892 5892 5892 5892 5892 5892 5892 5892 5892 5892 5892 5892 5892 5893 5893 5894 5894 5895 5895 5896 5897 5897 5898 5899
5889 5890 5890 5891 5891 5891 5892 5892 5892 5892 5892 5892 5893 5893 5893 5893 5893 5893 5893 5892 5892 5892 5892 5892 5892 5892 5892 5892 5892 5892 5892 5892 5892 5892 5893 5893 5894 5894 5895 5895 5896 5897 5898
5889 5889 5890 5890 5891 5891 5892 5892 5892 5892 5892 5892 5893 5893 5893 5893 5893 5893 5893 5892 5892 5891 5891 5891 5891 5891 5891 5891 5891 5891 5891 5891 5891 5891 5891 5892 5892 5893 5893 5894 5895 5896 5896
5888 5888 5889 5890 5890 5891 5891 5892 5892 5892 5892 5892 5893 5893 5893 5893 5893 5892 5892 5892 5891 5891 5891 5891 5891 5890 5890 5890 5890 5890 5890 5890 5890 5890 5890 5891 5891 5891 5892 5893 5893 5894 5895
5887 5888 5888 5889 5890 5890 5891 5891 5892 5892 5892 5893 5893 5893 5893 5892 5892 5892 5892 5891 5891 5891 5890 5890 5890 5889 5889 5889 5889 5889 5888 5888 5888 5888 5888 5889 5889 5890 5890 5891 5891 5892 5893
5886 5887 5888 5889 5889 5890 5890 5891 5891 5892 5892 5893 5893 5893 5892 5892 5892 5892 5891 5891 5890 5890 5889 5889 5889 5888 5888 5888 5887 5887 5887 5887 5887 5887 5887 5887 5887 5888 5888 5889 5889 5890 5891
5885 5886 5887 5887 5888 5889 5889 5890 5890 5891 5892 5892 5892 5892 5892 5892 5892 5891 5891 5890 5890 5889 5889 5888 5888 5887 5886 5886 5886 5885 5885 5885 5885 5885 5885 5885 5885 5886 5886 5887 5888 5888 5890
5884 5885 5885 5886 5887 5888 5888 5889 5890 5890 5891 5891 5892 5891 5891 5891 5891 5891 5890 5890 5889 5888 5888 5887 5886 5886 5885 5885 5884 5884 5883 5883 5883 5883 5883 5883 5883 5884 5884 5885 5886 5887 5888
5882 5883 5884 5885 5886 5886 5887 5888 5889 5889 5890 5891 5891 5891 5891 5891 5890 5890 5890 5889 5888 5887 5887 5886 5885 5884 5884 5883 5882 5882 5881 5881 5881 5881 5881 5881 5881 5882 5882 5883 5884 5885 5886
5880 5881 5883 5884 5884 5885 5886 5887 5888 5889 5889 5890 5890 5890 5890 5890 5890 5889 5889 5888 5887 5886 5886 5885 5884 5883 5882 5881 5881 5880 5879 5879 5879 5879 5879 5879 5879 5880 5880 5881 5882 5883 5884
5878 5879 5881 5882 5883 5884 5885 5886 5887 5888 5888 5888 5888 5888 5889 5889 5889 5888 5888 5887 5886 5886 5885 5884 5883 5882 5881 5880 5879 5878 5878 5877 5877 5877 5877 5877 5877 5878 5878 5879 5880 5880 5881
5876 5877 5879 5880 5881 5882 5883 5884 5886 5887 5887 5887 5887 5887 5888 5888 5888 5887 5887 5886 5885 5885 5884 5883 5882 5881 5880 5879 5878 5877 5876 5876 5876 5875 5875 5875 5875 5875 5876 5876 5877 5878 5879
5874 5875 5877 5878 5879 5880 5882 5883 5884 5885 5885 5886 5886 5886 5886 5886 5886 5886 5886 5885 5885 5884 5883 5881 5880 5879 5878 5877 5876 5876 5875 5874 5874 5873 5873 5873 5873 5873 5873 5874 5874 5875 5877
5872 5873 5875 5876 5878 5879 5880 5881 5882 5883 5884 5884 5885 5885 5885 5885 5885 5885 5885 5884 5883 5882 5881 5880 5879 5878 5877 5876 5875 5874 5874 5873 5872 5872 5872 5872 5872 5872 5871 5871 5872 5873 5874
5870 5871 5872 5874 5876 5877 5878 5879 5880 5881 5882 5883 5884 5884 5884 5884 5884 5884 5883 5883 5882 5881 5880 5879 5878 5877 5876 5875 5874 5873 5872 5871 5871 5871 5870 5870 5870 5870 5869 5869 5870 5871 5872
5867 5869 5870 5872 5874 5875 5876 5878 5879 5879 5880 5881 5882 5882 5882 5882 5882 5882 5882 5881 5881 5880 5879 5878 5877 5876 5874 5873 5872 5871 5870 5870 5870 5869 5869 5869 5869 5869 5868 5868 5869 5869 5870
5865 5867 5869 5870 5872 5873 5874 5876 5877 5878 5879 5879 5880 5881 5881 5881 5880 5880 5880 5880 5879 5879 5878 5877 5876 5874 5873 5872 5871 5870 5869 5868 5868 5868 5867 5867 5867 5867 5867 5867 5867 5867 5868
5863 5864 5866 5868 5869 5871 5872 5874 5875 5876 5877 5878 5878 5879 5879 5879 5879 5879 5879 5878 5878 5877 5876 5875 5875 5873 5872 5871 5870 5869 5868 5868 5867 5866 5866 5866 5866 5865 5865 5865 5865 5865 5865
5861 5862 5864 5865 5867 5869 5870 5871 5872 5873 5875 5876 5876 5877 5877 5877 5877 5877 5877 5877 5876 5876 5875 5874 5873 5872 5871 5870 5868 5868 5867 5866 5866 5866 5865 5865 5864 5864 5863 5863 5863 5863 5862
5858 5860 5862 5863 5865 5866 5868 5869 5870 5871 5873 5873 5874 5874 5875 5875 5875 5875 5875 5875 5875 5874 5873 5873 5872 5871 5870 5869 5868 5867 5866 5865 5864 5864 5864 5863 5863 5862 5862 5861 5860 5860 5859
5855 5857 5859 5861 5862 5864 5865 5867 5868 5869 5870 5871 5872 5872 5873 5873 5873 5874 5874 5873 5873 5873 5872 5871 5870 5869 5868 5867 5866 5865 5864 5864 5863 5863 5862 5862 5861 5860 5859 5858 5857 5856 5855
5853 5854 5856 5858 5860 5861 5863 5864 5865 5867 5868 5869 5870 5871 5871 5871 5872 5872 5872 5872 5871 5871 5870 5870 5869 5868 5867 5866 5865 5864 5863 5863 5862 5861 5861 5860 5859 5858 5857 5856 5854 5852 5850